Regional Weather Roundup
Issued by NWS

Home | Current Version | Previous Version | Graphics & Text | Print | Product List | Glossary On
Versions: 1 2 3 4 5 6 7 8 9 10 11 12 13 14 15 16 17 18 19 20 21 22 23 24 25 26 27 28 29 30 31 32 33 34 35 36 37 38 39 40 41 42 43 44 45 46 47 48 49 50
000
ASUS43 KOAX 250902
RWRNE

WEATHER ROUNDUP FOR NEBRASKA
NATIONAL WEATHER SERVICE OMAHA NE
400 AM CDT MON JUL 25 2016

NOTES: SATELLITE DATA IS BEING USED TO AUGMENT CLOUD COVER ABOVE
       12000 FEET.
       "FAIR" INDICATES FEW OR NO CLOUDS BELOW 12,000 FEET WITH NO
       SIGNIFICANT WEATHER AND/OR OBSTRUCTIONS TO VISIBILITY.

  * THESE STATIONS DO NOT REPORT WEATHER SUCH AS RAIN...SNOW OR FOG.

NEZ001>004-019>022-054>056-251000-
NEBRASKA PANHANDLE

CITY           SKY/WX    TMP DP  RH WIND       PRES   REMARKS
SCOTTSBLUFF    CLEAR     60  55  83 E8        30.17S
ALLIANCE       CLEAR     55  54  96 S7        30.17F
CHADRON        CLEAR     64  56  75 SE9       30.13S
KIMBALL        CLEAR     57  57  98 S6        30.22S
SIDNEY         CLEAR     50  49  96 CALM      30.22S
$$

NEZ057>060-069>072-079>082-251000-
SOUTHWEST NEBRASKA

CITY           SKY/WX    TMP DP  RH WIND       PRES   REMARKS
NORTH PLATTE   CLOUDY    62  59  90 NE7       30.15R
IMPERIAL       CLOUDY    64  60  87 CALM      30.16R
LEXINGTON      CLOUDY    65  62  90 E3        30.13R
MCCOOK         CLOUDY    66  60  81 E7        30.12R
OGALLALA       CLOUDY    61  58  90 CALM      30.17R
$$

NEZ005>010-023>029-035>040-094-251000-
NORTH CENTRAL NEBRASKA

CITY           SKY/WX    TMP DP  RH WIND       PRES   REMARKS
VALENTINE      CLEAR     62  54  74 CALM      30.12S
AINSWORTH      CLEAR     59  55  84 S3        30.12S
BROKEN BOW     CLOUDY    61  59  93 CALM      30.12S
O`NEILL        CLOUDY    64  59  85 CALM      30.11S
ORD            CLOUDY    62  57  83 CALM      30.09S
THEDFORD       CLOUDY    60  57  91 CALM      30.16R
$$

NEZ041-046>049-061>064-073>077-083>087-251000-
SOUTH CENTRAL NEBRASKA

CITY           SKY/WX    TMP DP  RH WIND       PRES   REMARKS
GRAND ISLAND   MOCLDY    66  63  90 E3        30.11R
AURORA         CLOUDY    65  64  97 NE3       30.09R
HASTINGS       MOCLDY    67  63  87 NE5       30.11R
HEBRON         CLOUDY    67  64  89 NE5       30.07R
HOLDREGE       CLOUDY    66  63  90 CALM      30.12R
KEARNEY *      CLOUDY    66  63  88 E3        30.12R
YORK           MOCLDY    64  63  94 CALM      30.09R
$$

NEZ011>018-030>034-042>045-251000-
NORTHEAST NEBRASKA

CITY           SKY/WX    TMP DP  RH WIND       PRES   REMARKS
NORFOLK        CLEAR     60  58  92 W3        30.08S
ALBION         PTCLDY    60  57  91 N3        30.09S
BLAIR          PTCLDY    67  65  92 N7        30.06S
FREMONT        CLOUDY    64  62  93 CALM      30.07R
TEKAMAH        CLEAR     63  61  93 N7        30.06S
WAYNE          CLEAR     57  56  96 CALM      30.09S
$$

NEZ050>053-065>068-078-088>093-251000-
SOUTHEAST NEBRASKA

CITY           SKY/WX    TMP DP  RH WIND       PRES   REMARKS
LINCOLN        PTCLDY    68  65  90 N6        30.08R
OMAHA EPPLEY   PTCLDY    69  63  81 N8        30.05R
BEATRICE       CLEAR     67  64  92 NE5       30.07R
FALLS CITY     PTCLDY    70  66  87 NE3       30.03R
NEBRASKA CITY  PTCLDY    67  67 100 N5        30.06R
PLATTSMOUTH    PTCLDY    67  64  90 CALM      30.06R
$$

NEZ044-045-051>053-067-251000-
OMAHA AREA

CITY           SKY/WX    TMP DP  RH WIND       PRES   REMARKS
OMAHA EPPLEY   PTCLDY    69  63  81 N8        30.05R
BLAIR          PTCLDY    67  65  92 N7        30.06S
FREMONT        CLOUDY    64  62  93 CALM      30.07R
MILLARD        MOCLDY    70  64  81 CALM      30.06R
OFFUTT AFB     PTCLDY    67  63  85 NE5       30.06R
PLATTSMOUTH    PTCLDY    67  64  90 CALM      30.06R
WAHOO          FAIR      64  63  94 CALM      30.07R
$$




USA.gov is the U.S. government's official web portal to all federal, state and local government web resources and services.